Location: Newark
(40.9833°N, 0.0333°W)
Time: 17:13:11
(UTC+00:00)

deb Explorer IX - Pass Details

Date: 27 October 2020
Orbit: 538 x 1104 km, 38.8° (Epoch: 22 November)

Event Time Altitude Azimuth Distance (km) Brightness Sun altitude
Rises 10:53:03 0° 280° (W) 3,845 ? 34.7°
Reaches altitude 10° 10:55:56 10° 272° (W) 2,928 ? 34.9°
Maximum altitude 11:02:30 38° 208° (SSW) 1,626 ? 35.1°
Drops below altitude 10° 11:09:02 10° 144° (SE) 2,906 ? 35.4°
Sets 11:11:54 0° 136° (SE) 3,814 ? 35.5°
